Find OneWeb SL0272

NORAD ID: 48990 Int'l Des: 2021-060 Owner: ONEWEBN Country: UK Constellation: oneweb operational
又名: ONEWEB-0272 spacetrack, celestrak
LEOCIRCULARPOLARONEWEB_TYPE

当前视图

正在加载3D地球...

About OneWeb SL0272

OneWeb SL0272 (NORAD 48990) is a oneweb constellation satellite launched Jul 1, 2021 by ONEWEBN of UK. It operates in LEO, CIRCULAR, POLAR, ONEWEB_TYPE orbit with a mass of 148.00 kg.

即将过境

Passes for default location (London). Set your location on the main map for personalized predictions.

高度历史

Loading altitude history...

两行轨道根数

1 48990U 21060Z 26266.30508406 .00000123 00000-0 28700-3 0 9993
2 48990 87.9156 209.3017 0002260 76.1466 283.9916 13.16593845252529
Epoch: Sep 23, 2026 • Age: 16 hours

当前状态

高度 1204.0 km
远地点 / 近地点 N/A
速度 7.25 km/s
星下点 -15.60°S, 149.12°W
发射日期 Jul 1, 2021
运行时间 5.2 years
类型 internet

技术详情

分类 Payload
质量 148.00 kg
干质量 140.00 kg
长度 1.30 m
直径 1.00 m
跨度 5.00 m
形状 ? Trapezoid+2 pan
制造商 ONEWUS
平台类型 ARROW
阶段状态 In Orbit
所有者/国家 ONEWEBN/UK

Most Searched